Regional Weather Roundup
Issued by NWS Lake Charles, LA

Home | Current Version | Previous Version | Text Only | Print | Product List | Glossary On
Versions: 1 2 3 4 5 6 7 8 9 10 11 12 13 14 15 16 17 18 19 20 21 22 23 24 25 26 27 28
000
ASUS44 KLCH 230810
RWRLCH
RWRLCH
REGIONAL WEATHER ROUNDUP
NATIONAL WEATHER SERVICE LAKE CHARLES LA
300 AM CDT WED APR 23 2014

Note: "fair" indicates few or no clouds below 12,000 feet with no
significant weather and/or obstructions to visibility.


ACROSS SOUTHEAST TEXAS

CITY           SKY/WX    TMP DP  RH WIND       PRES   REMARKS
BEAUMONT       FOG       65  64  97 CALM      29.93F VSB<1/4
BEAUMONT CITY  FOG       63  63 100 CALM      29.94S VSB 1/4
ORANGE         FOG       62  62 100 CALM      29.95S VSB 1/2
JASPER         CLEAR     58  57  97 CALM      29.96F FOG
$$

ACROSS CENTRAL LOUISIANA

CITY           SKY/WX    TMP DP  RH WIND       PRES   REMARKS
LEESVILLE      CLEAR     60  57  89 CALM      29.94F
FULLERTON        N/A     60  56  86 CALM      29.93S
ALEXANDRIA INT CLEAR     59  59 100 CALM      29.93F
ESLER FIELD    CLEAR     56  54  93 CALM      29.95S FOG
DERIDDER         N/A     60  58  92 CALM      29.96F
OAKDALE        SUNNY     56  54  95 CALM      29.94S FOG
OPELOUSAS        N/A     56  56 100 CALM      29.94S FOG
$$

ACROSS SOUTHWEST AND SOUTH CENTRAL LOUISIANA

CITY           SKY/WX    TMP DP  RH WIND       PRES   REMARKS
SULPHUR        FOG       63  63 100 CALM      29.94F VSB<1/4
LAKE CHARLES   FOG       62  62 100 CALM      29.93F VSB 1/4
CHENNAULT INT  FOG       62  62 100 CALM      29.94F VSB<1/4
CAMERON PHI      N/A     70  68  94 SW6       29.94F FOG
DEQUINCY         N/A     58  57  97 CALM      29.94F
JENNINGS         N/A     63  63  99 CALM      29.94S FOG
LAFAYETTE      CLEAR     62  60  93 CALM      29.94F
NEW IBERIA     CLEAR     62  59  90 N3        29.94F
ABBEVILLE      FOG      N/A N/A N/A CALM      29.94F VSB<1/4
PATTERSON      CLEAR     61  61 100 CALM      29.97S
SALT POINT       N/A     71  68  90 CALM      29.93S
$$

SELECTED SITES ACROSS THE REGION

CITY           SKY/WX    TMP DP  RH WIND       PRES   REMARKS
HOUSTON BUSH   CLEAR     66  65  96 CALM      29.93F
HOUSTON HOBBY  FOG       66  66 100 CALM      29.93F VSB 1
GALVESTON      CLEAR     69  69 100 SW3       29.94F
COLLEGE STAT   CLEAR     65  59  81 CALM      29.93F
CONROE         CLEAR     57  57 100 CALM      29.94F
HUNTSVILLE     CLEAR     70  59  68 CALM      29.94S
LUFKIN         CLEAR     61  57  87 CALM      29.94F
SHREVEPORT     CLEAR     60  57  89 CALM      29.93S
MONROE         CLEAR     57  57 100 CALM      29.95S FOG
NATCHEZ MS     CLEAR     57  54  88 CALM      29.95S
BATON ROUGE    CLEAR     61  58  90 CALM      29.94S
N.O. INTL ARPT CLEAR     65  63  93 CALM      29.93S
SLIDELL        CLEAR     58  55  90 CALM      29.92S
$$

MARINE REPORTS

STATION/POSITION TIME  TEMP    WIND        PRES    VSBY  WAVE
                       AIR SEA DIR/SP/G                  HT/PER
                 (UTC) (F)     (DEG/KT/KT) (MB)    (MI)  (FT/S)
BUOY 30 S HIGH I 0800   70 70  250/  6/  8 1013.6F         1/ 5
SEA RIM ST PARK  0800   67     250/  5/  5 1014.3F
PORT ARTHUR      0800      70  230/  3/  4 1013.7F
SABINE PASS N    0800   68 71  250/  2/  6 1013.8S
TEXAS POINT      0800   68 71  250/  7/  8 1014.0F
CALCASIEU PASS   0800   70 73  250/  6/  8 1014.8S
LK CHARLES BEACH 0800   68 74              1014.3F
MARSH ISLAND     0700   71     310/  5/  8   N/A
FRESH WATER LOCK 0800   66 74  250/  5/  5 1013.7F
AMERADA PASS     0800   65 65  250/  1/  3 1013.7F
$$



USA.gov is the U.S. government's official web portal to all federal, state and local government web resources and services.